Location: St. Louis
(38.6270°N, 90.1994°W)
Time: 00:39:34
(UTC-06:00)

Courier 1B Rocket - Pass Details

Date: 04 December 2021
Orbit: 920 x 1202 km, 28.2° (Epoch: 16 January)

Event Time Altitude Azimuth Distance (km) Brightness Sun altitude
Rises 23:21:58 0° 245° (WSW) 3,643 - -72.6°
Reaches altitude 10° 23:24:56 10° 236° (SW) 2,663 - -72.8°
Maximum altitude 23:30:26 31° 176° (S) 1,556 - -73.2°
Drops below altitude 10° 23:35:50 10° 116° (ESE) 2,603 - -73.4°
Sets 23:38:41 0° 106° (ESE) 3,549 - -73.5°
